| time (UTC) | temp F | wind direction | speed MPH | gust MPH | rain 1hr in | rain 24hr in | rain mn in | humidity % | barometer mb |
| 20260506134546 | 60 | 0 | 0.0 | 5.0 | 0.00 | 0.20 | 0.20 | 92 | 1021.3 |
| 20260506133044 | 60 | 0 | 0.0 | 9.0 | 0.03 | 0.20 | 0.20 | 92 | 1021.2 |
| 20260506131552 | 60 | 46 | 2.0 | 8.0 | 0.06 | 0.20 | 0.20 | 92 | 1021.4 |
| 20260506130046 | 60 | 51 | 1.0 | 8.0 | 0.08 | 0.20 | 0.20 | 92 | 1021.6 |
| 20260506124540 | 60 | 0 | 1.0 | 6.0 | 0.07 | 0.19 | 0.19 | 91 | 1021.6 |
| 20260506123052 | 60 | 0 | 1.0 | 8.0 | 0.05 | 0.17 | 0.17 | 91 | 1021.8 |
| 20260506121557 | 60 | 0 | 0.0 | 5.0 | 0.01 | 0.13 | 0.13 | 91 | 1022.2 |
| 20260506120053 | 60 | 15 | 2.0 | 9.0 | 0.00 | 0.11 | 0.11 | 91 | 1022.0 |
| 20260506114553 | 61 | 0 | 2.0 | 10.0 | 0.00 | 0.11 | 0.11 | 91 | 1022.0 |
| 20260506113046 | 61 | 32 | 1.0 | 7.0 | 0.00 | 0.11 | 0.11 | 91 | 1022.0 |
| 20260506111548 | 61 | 0 | 1.0 | 8.0 | 0.00 | 0.11 | 0.11 | 91 | 1021.9 |
| 20260506110046 | 61 | 55 | 1.0 | 7.0 | 0.00 | 0.11 | 0.11 | 91 | 1021.9 |
| 20260506104546 | 61 | 23 | 1.0 | 10.0 | 0.00 | 0.11 | 0.11 | 91 | 1021.8 |
| 20260506103052 | 61 | 33 | 1.0 | 7.0 | 0.00 | 0.11 | 0.11 | 91 | 1021.9 |
| 20260506101549 | 61 | 0 | 2.0 | 7.0 | 0.00 | 0.11 | 0.11 | 91 | 1022.0 |
| 20260506100103 | 61 | 344 | 1.0 | 6.0 | 0.00 | 0.11 | 0.11 | 91 | 1022.0 |
| 20260506094549 | 61 | 15 | 2.0 | 8.0 | 0.00 | 0.11 | 0.11 | 90 | 1021.8 |
| 20260506093048 | 62 | 34 | 1.0 | 5.0 | 0.00 | 0.11 | 0.11 | 90 | 1021.6 |
| 20260506091553 | 62 | 51 | 1.0 | 8.0 | 0.00 | 0.11 | 0.11 | 90 | 1021.6 |
| 20260506090048 | 62 | 47 | 2.0 | 6.0 | 0.00 | 0.11 | 0.11 | 90 | 1021.5 |
| 20260506084548 | 63 | 16 | 0.0 | 6.0 | 0.00 | 0.11 | 0.11 | 89 | 1021.4 |
| 20260506083050 | 63 | 20 | 0.0 | 6.0 | 0.05 | 0.11 | 0.11 | 89 | 1021.2 |
| 20260506081551 | 63 | 34 | 1.0 | 5.0 | 0.08 | 0.11 | 0.11 | 88 | 1020.8 |
| 20260506073046 | 64 | 0 | 0.0 | 4.0 | 0.06 | 0.06 | 0.06 | 84 | 1020.3 |
| 20260506071556 | 65 | 0 | 0.0 | 5.0 | 0.02 | 0.02 | 0.02 | 82 | 1020.3 |
| 20260506061545 | 69 | 23 | 0.0 | 6.0 | 0.00 | 0.00 | 0.00 | 72 | 1020.1 |
| 20260506044550 | 72 | 0 | 0.0 | 4.0 | 0.00 | 0.00 | 0.00 | 68 | 1019.9 |
| 20260506043047 | 72 | 0 | 0.0 | 6.0 | 0.00 | 0.00 | 0.00 | 68 | 1020.1 |
| 20260506041553 | 73 | 352 | 3.0 | 10.0 | 0.00 | 0.00 | 0.00 | 68 | 1020.1 |
| 20260506040055 | 72 | 0 | 0.0 | 7.0 | 0.00 | 0.00 | 0.00 | 67 | 1020.2 |
| 20260506034550 | 72 | 24 | 1.0 | 6.0 | 0.00 | 0.00 | 0.00 | 67 | 1020.3 |
| 20260506033045 | 73 | 15 | 0.0 | 11.0 | 0.00 | 0.00 | 0.00 | 67 | 1020.4 |
| 20260506031547 | 72 | 0 | 0.0 | 8.0 | 0.00 | 0.00 | 0.00 | 69 | 1020.5 |
| 20260506024600 | 72 | 303 | 2.0 | 9.0 | 0.00 | 0.00 | 0.00 | 72 | 1020.8 |
| 20260506023053 | 71 | 0 | 0.0 | 7.0 | 0.00 | 0.00 | 0.00 | 70 | 1021.1 |
| 20260506021559 | 69 | 0 | 1.0 | 5.0 | 0.00 | 0.00 | 0.00 | 76 | 1021.6 |
| 20260506020048 | 69 | 51 | 2.0 | 6.0 | 0.00 | 0.00 | 0.00 | 75 | 1021.5 |
| 20260506014557 | 70 | 0 | 1.0 | 7.0 | 0.00 | 0.00 | 0.00 | 74 | 1021.7 |
| 20260506013054 | 71 | 0 | 2.0 | 8.0 | 0.00 | 0.00 | 0.00 | 72 | 1021.7 |
| 20260506011548 | 71 | 0 | 2.0 | 6.0 | 0.00 | 0.00 | 0.00 | 73 | 1021.9 |
| 20260506010056 | 69 | 38 | 2.0 | 9.0 | 0.00 | 0.00 | 0.00 | 76 | 1022.0 |
| 20260506004551 | 68 | 34 | 0.0 | 7.0 | 0.00 | 0.00 | 0.00 | 78 | 1022.3 |
| 20260506003045 | 68 | 0 | 2.0 | 9.0 | 0.00 | 0.00 | 0.00 | 77 | 1022.5 |
| 20260506001546 | 67 | 65 | 2.0 | 5.0 | 0.00 | 0.00 | 0.00 | 79 | 1022.7 |
| 20260506000043 | 66 | 13 | 0.0 | 8.0 | 0.00 | 0.00 | 0.00 | 81 | 1022.8 |
| 20260505234542 | 65 | 0 | 1.0 | 6.0 | 0.00 | 0.00 | 0.00 | 82 | 1022.8 |
| 20260505233045 | 65 | 16 | 2.0 | 8.0 | 0.00 | 0.00 | 0.00 | 81 | 1022.7 |
| 20260505231548 | 65 | 28 | 1.0 | 7.0 | 0.00 | 0.00 | 0.00 | 82 | 1022.8 |
| 20260505230049 | 65 | 32 | 2.0 | 8.0 | 0.00 | 0.00 | 0.00 | 82 | 1022.7 |
| 20260505224548 | 66 | 0 | 2.0 | 6.0 | 0.00 | 0.00 | 0.00 | 81 | 1022.6 |
| 20260505223052 | 66 | 55 | 1.0 | 7.0 | 0.00 | 0.00 | 0.00 | 81 | 1022.6 |
| 20260505221547 | 65 | 0 | 0.0 | 3.0 | 0.00 | 0.00 | 0.00 | 83 | 1022.7 |
| 20260505220049 | 63 | 0 | 0.0 | 3.0 | 0.00 | 0.00 | 0.00 | 85 | 1022.5 |
| 20260505214545 | 62 | 0 | 0.0 | 3.0 | 0.00 | 0.00 | 0.00 | 85 | 1022.3 |
| 20260505213051 | 63 | 51 | 1.0 | 4.0 | 0.00 | 0.00 | 0.00 | 85 | 1022.1 |
| 20260505211547 | 61 | 0 | 0.0 | 0.0 | 0.00 | 0.00 | 0.00 | 87 | 1022.1 |
| 20260505210048 | 60 | 0 | 0.0 | 0.0 | 0.00 | 0.00 | 0.00 | 89 | 1022.0 |
| 20260505204549 | 59 | 0 | 0.0 | 0.0 | 0.00 | 0.00 | 0.00 | 91 | 1021.9 |
| 20260505203056 | 59 | 0 | 0.0 | 0.0 | 0.00 | 0.00 | 0.00 | 91 | 1021.9 |
| 20260505201550 | 59 | 0 | 0.0 | 0.0 | 0.00 | 0.00 | 0.00 | 91 | 1021.6 |
| 20260505200051 | 58 | 0 | 0.0 | 0.0 | 0.00 | 0.00 | 0.00 | 91 | 1021.6 |
| 20260505194552 | 58 | 0 | 0.0 | 3.0 | 0.00 | 0.00 | 0.00 | 91 | 1021.7 |
| 20260505193105 | 58 | 30 | 0.0 | 4.0 | 0.00 | 0.00 | 0.00 | 91 | 1021.5 |
| 20260505191558 | 59 | 38 | 0.0 | 9.0 | 0.00 | 0.00 | 0.00 | 91 | 1021.3 |
| 20260505190045 | 59 | 32 | 1.0 | 4.0 | 0.00 | 0.00 | 0.00 | 91 | 1021.1 |
| 20260505184553 | 59 | 55 | 0.0 | 4.0 | 0.00 | 0.00 | 0.00 | 91 | 1020.8 |
| 20260505183052 | 59 | 27 | 1.0 | 6.0 | 0.00 | 0.00 | 0.00 | 90 | 1020.9 |
| 20260505181540 | 59 | 0 | 0.0 | 7.0 | 0.00 | 0.00 | 0.00 | 90 | 1020.8 |
| 20260505180052 | 59 | 50 | 0.0 | 3.0 | 0.00 | 0.00 | 0.00 | 90 | 1021.0 |
| 20260505174545 | 59 | 0 | 0.0 | 4.0 | 0.00 | 0.00 | 0.00 | 90 | 1021.0 |
| 20260505173046 | 60 | 0 | 0.0 | 6.0 | 0.00 | 0.00 | 0.00 | 91 | 1020.9 |
| 20260505171548 | 60 | 12 | 1.0 | 5.0 | 0.00 | 0.00 | 0.00 | 91 | 1021.1 |
| 20260505170043 | 60 | 20 | 0.0 | 4.0 | 0.00 | 0.00 | 0.00 | 91 | 1021.3 |
| 20260505164549 | 60 | 0 | 1.0 | 5.0 | 0.00 | 0.00 | 0.00 | 90 | 1021.2 |
| 20260505163052 | 60 | 9 | 0.0 | 4.0 | 0.00 | 0.00 | 0.00 | 90 | 1021.3 |
| 20260505161546 | 60 | 0 | 0.0 | 4.0 | 0.00 | 0.00 | 0.00 | 90 | 1021.5 |
| 20260505153101 | 62 | 0 | 0.0 | 5.0 | 0.00 | 0.00 | 0.00 | 89 | 1021.5 |
| 20260505151551 | 62 | 0 | 0.0 | 5.0 | 0.00 | 0.00 | 0.00 | 89 | 1021.6 |